Date,TemperatureHighF,TemperatureAvgF,TemperatureLowF,DewpointHighF,DewpointAvgF,DewpointLowF,HumidityHigh,HumidityAvg,HumidityLow,PressureMaxIn,PressureMinIn,WindSpeedMaxMPH,WindSpeedAvgMPH,GustSpeedMaxMPH,PrecipitationSumIn
2013-2-1,37,31,24,24,8,-2,66,41,23,30.47,30.00,22,3,0,0.00
2013-2-2,40,31,20,30,14,7,80,53,26,30.50,30.14,4,0,0,0.02
2013-2-3,46,37,29,29,24,18,83,61,37,30.14,29.97,14,2,0,0.00
2013-2-4,49,36,26,25,21,17,74,56,33,30.24,30.09,2,0,0,0.00
2013-2-5,58,42,30,33,27,24,81,58,28,30.09,29.99,7,1,0,0.00
2013-2-6,58,42,30,34,22,10,85,53,15,30.35,30.08,11,1,0,0.00
2013-2-7,42,38,33,34,29,22,84,71,54,30.41,30.14,10,2,0,0.82
2013-2-8,54,44,36,43,32,23,86,67,34,30.20,29.97,9,2,0,0.05
2013-2-9,54,39,27,24,19,9,78,51,17,30.44,30.20,5,0,0,0.00
2013-2-10,53,40,29,36,25,17,82,60,24,30.55,30.28,4,0,0,0.19
2013-2-11,56,48,41,52,43,36,86,84,80,30.28,30.04,5,0,0,0.07
2013-2-12,55,46,35,38,31,20,83,61,26,30.20,30.02,4,0,0,0.02
2013-2-13,45,42,38,41,37,29,85,82,65,30.03,29.75,6,0,0,0.20
2013-2-14,50,39,29,32,28,23,83,66,44,30.16,29.97,8,1,0,0.00
2013-2-15,58,42,27,36,28,23,85,63,30,30.20,30.02,6,1,0,0.01
2013-2-16,43,35,28,28,22,12,80,61,46,30.10,29.93,13,2,0,0.03
2013-2-17,38,30,24,15,7,2,60,40,23,30.37,30.11,11,3,0,0.00
2013-2-18,50,34,20,25,18,11,77,54,30,30.49,30.30,3,0,0,0.01
2013-2-19,49,40,32,40,27,12,84,63,29,30.32,29.96,10,1,0,0.09
2013-2-20,52,40,26,15,6,-6,61,28,9,30.23,30.11,11,1,0,0.00
2013-2-21,54,38,23,32,16,6,78,46,15,30.39,30.20,4,0,0,0.05
2013-2-22,38,36,34,33,31,29,84,82,78,30.41,30.23,6,1,0,0.45
2013-2-23,46,40,34,40,35,30,85,82,75,30.25,29.94,4,0,0,0.20
2013-2-24,60,46,36,37,28,19,86,56,22,30.12,29.95,9,1,0,0.00
2013-2-25,42,36,29,25,23,21,79,62,49,30.30,30.12,11,2,0,0.00
2013-2-26,38,35,32,34,29,20,85,80,53,30.21,29.71,9,2,0,1.47
2013-2-27,55,43,35,37,34,29,90,72,47,29.91,29.77,7,1,0,0.01
2013-2-28,45,40,35,29,23,21,62,51,41,30.00,29.83,7,2,0,0.00